TimeCST,TemperatureF,Dew PointF,Humidity,Sea Level PressureIn,VisibilityMPH,Wind Direction,Wind SpeedMPH,Gust SpeedMPH,PrecipitationIn,Events,Conditions,WindDirDegrees,DateUTC
12:53 AM,26.1,19.9,78,30.27,10.0,NNW,5.8,-,N/A,,Overcast,340,2013-03-02 06:53:00
1:53 AM,26.1,19.9,78,30.27,10.0,North,9.2,-,N/A,,Overcast,350,2013-03-02 07:53:00
2:53 AM,24.8,17.6,74,30.23,10.0,NNW,11.5,-,N/A,,Overcast,340,2013-03-02 08:53:00
3:53 AM,25.0,17.1,72,30.25,10.0,NNW,6.9,-,N/A,,Overcast,340,2013-03-02 09:53:00
4:53 AM,24.1,17.1,75,30.26,10.0,NNW,6.9,-,N/A,,Overcast,330,2013-03-02 10:53:00
5:53 AM,23.0,15.8,74,30.24,10.0,NW,8.1,-,N/A,,Overcast,320,2013-03-02 11:53:00
6:53 AM,19.0,12.0,74,30.28,10.0,NW,8.1,-,N/A,,Clear,320,2013-03-02 12:53:00
7:53 AM,18.0,12.0,78,30.29,10.0,NNW,8.1,-,N/A,,Clear,330,2013-03-02 13:53:00
8:53 AM,19.9,12.0,71,30.29,10.0,NNW,8.1,-,N/A,,Clear,340,2013-03-02 14:53:00
9:53 AM,21.9,12.9,68,30.30,10.0,NW,8.1,-,N/A,,Clear,310,2013-03-02 15:53:00
10:53 AM,21.9,12.9,68,30.30,10.0,WNW,5.8,-,N/A,,Clear,300,2013-03-02 16:53:00
11:53 AM,25.0,12.9,60,30.30,10.0,WNW,9.2,-,N/A,,Clear,300,2013-03-02 17:53:00
12:53 PM,27.0,12.9,56,30.27,10.0,NNW,10.4,-,N/A,,Clear,340,2013-03-02 18:53:00
1:53 PM,27.0,12.9,56,30.26,10.0,NW,9.2,-,N/A,,Clear,320,2013-03-02 19:53:00
2:53 PM,28.0,12.9,53,30.25,10.0,NNW,8.1,-,N/A,,Clear,340,2013-03-02 20:53:00
3:53 PM,28.0,15.1,58,30.25,10.0,NW,8.1,-,N/A,,Clear,310,2013-03-02 21:53:00
4:53 PM,26.1,14.0,60,30.25,10.0,NW,6.9,-,N/A,,Clear,310,2013-03-02 22:53:00
5:53 PM,24.1,12.9,62,30.26,10.0,WNW,5.8,-,N/A,,Clear,300,2013-03-02 23:53:00
6:53 PM,21.2,12.2,68,30.23,10.0,NW,3.5,-,N/A,,Clear,320,2013-03-03 00:53:00
7:53 PM,19.9,12.0,71,30.25,10.0,NNW,4.6,-,N/A,,Clear,330,2013-03-03 01:53:00
8:53 PM,18.0,10.9,74,30.26,10.0,NW,3.5,-,N/A,,Clear,320,2013-03-03 02:53:00
9:53 PM,16.0,10.9,81,30.25,10.0,NNW,4.6,-,N/A,,Clear,330,2013-03-03 03:53:00
10:53 PM,12.0,8.1,84,30.25,10.0,NNW,3.5,-,N/A,,Clear,340,2013-03-03 04:53:00
11:53 PM,10.9,8.1,88,30.24,10.0,NW,3.5,-,N/A,,Clear,320,2013-03-03 05:53:00